This is the latest recevied weather packets stored in our database for station/object SR2GKG-13. If no packets are shown the sender has not sent any weather packets the latest 10 day(s).
| Time | Temp. | Humidity | Pressure | Rain* | Wind** | Luminosity | Snow |
|---|---|---|---|---|---|---|---|
| 1777430307 | -2.22° C | 85% | 1016.4 hPa | - | - | - | - |
| 1777429406 | -2.22° C | 83% | 1016.3 hPa | - | - | - | - |
| 1777428506 | -2.22° C | 79% | 1016.2 hPa | - | - | - | - |
| 1777427606 | -2.22° C | 76% | 1016.2 hPa | - | - | - | - |
| 1777426706 | -1.67° C | 76% | 1016.3 hPa | - | - | - | - |
| 1777425806 | -2.22° C | 75% | 1016.1 hPa | - | - | - | - |
| 1777424906 | -1.67° C | 72% | 1016.1 hPa | - | - | - | - |
| 1777424006 | -1.67° C | 70% | 1016.1 hPa | - | - | - | - |
| 1777423106 | -1.67° C | 68% | 1016.3 hPa | - | - | - | - |
| 1777422206 | -1.11° C | 66% | 1016.2 hPa | - | - | - | - |
| 1777421306 | -1.11° C | 65% | 1016.2 hPa | - | - | - | - |
| 1777420406 | -1.11° C | 64% | 1016.2 hPa | - | - | - | - |
| 1777419506 | -1.11° C | 62% | 1016.2 hPa | - | - | - | - |
| 1777418606 | -1.11° C | 63% | 1016.7 hPa | - | - | - | - |
| 1777417705 | -0.56° C | 62% | 1016 hPa | - | - | - | - |
| 1777416805 | 0° C | 60% | 1015.9 hPa | - | - | - | - |
| 1777415905 | 0° C | 60% | 1015.8 hPa | - | - | - | - |
| 1777415005 | 0.56° C | 59% | 1015.8 hPa | - | - | - | - |
| 1777414105 | 0.56° C | 57% | 1015.6 hPa | - | - | - | - |
| 1777413205 | 1.11° C | 55% | 1015.5 hPa | - | - | - | - |
| 1777412305 | 2.22° C | 53% | 1015.4 hPa | - | - | - | - |
| 1777411405 | 2.78° C | 51% | 1015.3 hPa | - | - | - | - |
| 1777410505 | 3.33° C | 50% | 1015.1 hPa | - | - | - | - |
| 1777409604 | 3.33° C | 49% | 1015.1 hPa | - | - | - | - |
| 1777408704 | 3.89° C | 48% | 1014.9 hPa | - | - | - | - |
* Rain since midnight (hover to see other rain measurements)
** Current wind speed in m/s (hover to see current wind gust speed)